Luverne, MN

7:46 AM CDT on October 22, 2017 (GMT -0500)
Luverne

Weather History for KLYV - January, 2013

Change the Weather History Date:

Wednesday, January 16, 2013

  Actual Average (KPQN) Record (KPQN)
Temperature  
Mean Temperature 26 °F -  
Max Temperature 39 °F 21 °F 39 °F (2004)
Min Temperature 12 °F 6 °F -14 °F (2009)
Degree Days  
Heating Degree Days 40    
Moisture  
Dew Point 21 °F    
Average Humidity 77    
Maximum Humidity 93    
Minimum Humidity 49    
Precipitation  
Precipitation 0.00 in - - ()
Sea Level Pressure  
Sea Level Pressure 29.93 in    
Wind  
Wind Speed 12 mph (WNW)    
Max Wind Speed 17 mph    
Max Gust Speed 25 mph    
Visibility 10 miles    
Events Snow    
Averages and records for this station are not official NWS values.
T = Trace of Precipitation, MM = Missing Value Source: NWS Daily Summary

Daily Weather History Graph

Daily Weather History Graph

Search for Another Location

Airport or City:

Trip Planner

Search our weather history database for the weather conditions in past years. The results will help you decide how hot, cold, wet, or windy it might be!

Date:

Astronomy

Jan. 16, 2013 Rise Set
Actual Time 7:54 AM CST 5:15 PM CST
Civil Twilight 7:22 AM CST 5:47 PM CST
Nautical Twilight 6:47 AM CST 6:22 PM CST
Astronomical Twilight 6:13 AM CST 6:56 PM CST
Moon 10:19 AM CST (1/16) 11:21 PM CST (1/16)
Length of Visible Light 10h 24m
Length of Day
9h 20m
Waxing Crescent, 28% of the Moon is Illuminated
Jan 16
Waxing Crescent
Jan 18
First Quarter
Jan 26
Full
Feb 3
Last Quarter
Feb 10
New

Hourly Weather History & Observations

Time (CST) Temp. Windchill Dew Point Humidity Pressure Visibility Wind Dir Wind Speed Gust Speed Precip Events Conditions
12:16 AM 21.2 °F 9.5 °F 14.0 °F 74% 29.83 in 10.0 mi SW 11.5 mph - N/A   Mostly Cloudy
12:36 AM 23.0 °F 11.7 °F 14.0 °F 68% 29.82 in 10.0 mi SSW 11.5 mph - N/A   Overcast
12:55 AM 23.0 °F 11.7 °F 15.8 °F 74% 29.81 in 10.0 mi SSW 11.5 mph - N/A   Overcast
1:16 AM 24.8 °F 14.6 °F 17.6 °F 74% 29.80 in 10.0 mi SW 10.4 mph - N/A   Overcast
1:36 AM 26.6 °F 15.7 °F 17.6 °F 69% 29.80 in 10.0 mi WSW 12.7 mph - N/A   Overcast
1:55 AM 26.6 °F 14.3 °F 19.4 °F 74% 29.79 in 10.0 mi WSW 16.1 mph - N/A   Overcast
2:16 AM 26.6 °F 14.3 °F 19.4 °F 74% 29.79 in 10.0 mi WSW 16.1 mph - N/A   Overcast
2:36 AM 26.6 °F 14.7 °F 19.4 °F 74% 29.78 in 10.0 mi SW 15.0 mph - N/A   Overcast
2:55 AM 28.4 °F 17.0 °F 21.2 °F 74% 29.78 in 10.0 mi SW 15.0 mph - N/A   Overcast
3:16 AM 28.4 °F 18.0 °F 21.2 °F 74% 29.78 in 10.0 mi WSW 12.7 mph - N/A   Overcast
3:36 AM 28.4 °F 18.5 °F 21.2 °F 74% 29.77 in 10.0 mi WSW 11.5 mph - N/A   Overcast
3:55 AM 28.4 °F 18.5 °F 23.0 °F 80% 29.76 in 10.0 mi WSW 11.5 mph - N/A   Overcast
4:16 AM 28.4 °F 19.1 °F 23.0 °F 80% 29.76 in 10.0 mi SW 10.4 mph - N/A   Overcast
4:36 AM 28.4 °F 19.7 °F 26.6 °F 93% 29.76 in 5.0 mi WSW 9.2 mph - N/A Snow Light Snow
4:55 AM 28.4 °F 20.4 °F 26.6 °F 93% 29.75 in 10.0 mi WSW 8.1 mph - N/A   Overcast
5:16 AM 30.2 °F 25.4 °F 28.4 °F 93% 29.76 in 10.0 mi West 4.6 mph - N/A   Overcast
5:55 AM 30.2 °F 21.9 °F 28.4 °F 93% 29.75 in 10.0 mi West 9.2 mph - N/A   Scattered Clouds
6:16 AM 30.2 °F 23.4 °F 26.6 °F 86% 29.76 in 10.0 mi West 6.9 mph - N/A   Clear
6:36 AM 32.0 °F 22.5 °F 28.4 °F 87% 29.77 in 10.0 mi West 12.7 mph - N/A   Clear
6:55 AM 32.0 °F 23.0 °F 28.4 °F 87% 29.77 in 10.0 mi West 11.5 mph - N/A   Clear
7:16 AM 30.2 °F 21.9 °F 28.4 °F 93% 29.78 in 10.0 mi West 9.2 mph - N/A   Clear
7:36 AM 30.2 °F 21.9 °F 28.4 °F 93% 29.79 in 10.0 mi West 9.2 mph - N/A   Clear
7:56 AM 30.2 °F 20.2 °F 26.6 °F 86% 29.79 in 10.0 mi West 12.7 mph - N/A   Clear
8:16 AM 30.2 °F 20.8 °F 28.4 °F 93% 29.80 in 10.0 mi West 11.5 mph - N/A   Scattered Clouds
8:36 AM 32.0 °F 23.6 °F 28.4 °F 87% 29.81 in 10.0 mi WNW 10.4 mph - N/A   Mostly Cloudy
8:56 AM 32.0 °F 24.2 °F 28.4 °F 87% 29.82 in 10.0 mi West 9.2 mph - N/A   Mostly Cloudy
9:15 AM 32.0 °F 22.5 °F 28.4 °F 87% 29.83 in 10.0 mi West 12.7 mph - N/A   Mostly Cloudy
9:36 AM 32.0 °F 22.5 °F 30.2 °F 93% 29.83 in 10.0 mi West 12.7 mph - N/A   Scattered Clouds
9:56 AM 33.8 °F 23.5 °F 30.2 °F 87% 29.83 in 10.0 mi West 16.1 mph - N/A   Scattered Clouds
10:15 AM 33.8 °F 23.5 °F 30.2 °F 87% 29.83 in 10.0 mi West 16.1 mph - N/A   Mostly Cloudy
10:36 AM 35.6 °F 25.5 °F 30.2 °F 81% 29.85 in 10.0 mi West 17.3 mph - N/A   Scattered Clouds
10:56 AM 35.6 °F 26.2 °F 30.2 °F 81% 29.85 in 10.0 mi West 15.0 mph - N/A   Scattered Clouds
11:15 AM 35.6 °F 27.1 °F 32.0 °F 87% 29.85 in 10.0 mi West 12.7 mph - N/A   Overcast
11:36 AM 37.4 °F 29.3 °F 32.0 °F 81% 29.83 in 10.0 mi West 12.7 mph - N/A   Mostly Cloudy
11:56 AM 37.4 °F 28.9 °F 32.0 °F 81% 29.83 in 10.0 mi West 13.8 mph - N/A   Scattered Clouds
12:16 PM 37.4 °F 29.8 °F 32.0 °F 81% 29.83 in 10.0 mi West 11.5 mph - N/A   Clear
12:36 PM 39.2 °F 31.6 °F 32.0 °F 75% 29.83 in 10.0 mi WNW 12.7 mph - N/A   Clear
12:56 PM 39.2 °F 31.2 °F 32.0 °F 75% 29.84 in 10.0 mi West 13.8 mph - N/A   Clear
1:15 PM 39.2 °F 30.8 °F 32.0 °F 75% 29.84 in 10.0 mi West 15.0 mph 20.7 mph N/A   Clear
1:36 PM 39.2 °F 31.2 °F 32.0 °F 75% 29.85 in 10.0 mi WNW 13.8 mph - N/A   Clear
2:15 PM 39.2 °F 30.5 °F 32.0 °F 75% 29.86 in 10.0 mi WNW 16.1 mph - N/A   Clear
2:36 PM 39.2 °F 31.2 °F 32.0 °F 75% 29.87 in 10.0 mi NW 13.8 mph 21.9 mph N/A   Clear
2:56 PM 39.2 °F 30.8 °F 32.0 °F 75% 29.88 in 10.0 mi NW 15.0 mph - N/A   Scattered Clouds
3:15 PM 39.2 °F 31.2 °F 32.0 °F 75% 29.91 in 10.0 mi NW 13.8 mph 19.6 mph N/A   Mostly Cloudy
3:36 PM 37.4 °F 28.5 °F 32.0 °F 81% 29.92 in 10.0 mi NNW 15.0 mph - N/A   Overcast
3:55 PM 33.8 °F 24.3 °F 30.2 °F 87% 29.96 in 10.0 mi NNE 13.8 mph 19.6 mph N/A   Overcast
4:16 PM 32.0 °F 23.0 °F 28.4 °F 87% 29.98 in 10.0 mi North 11.5 mph 19.6 mph N/A   Overcast
4:35 PM 30.2 °F 20.8 °F 26.6 °F 86% 30.01 in 10.0 mi North 11.5 mph 25.3 mph N/A   Overcast
4:56 PM 30.2 °F 19.3 °F 24.8 °F 80% 30.02 in 10.0 mi North 15.0 mph - N/A   Mostly Cloudy
5:16 PM 28.4 °F 17.0 °F 23.0 °F 80% 30.03 in 10.0 mi North 15.0 mph - N/A   Mostly Cloudy
5:35 PM 28.4 °F 17.5 °F 23.0 °F 80% 30.05 in 10.0 mi NNE 13.8 mph 19.6 mph N/A   Overcast
5:56 PM 26.6 °F 15.7 °F 21.2 °F 80% 30.07 in 10.0 mi NNE 12.7 mph 20.7 mph N/A   Scattered Clouds
6:16 PM 26.6 °F 14.7 °F 19.4 °F 74% 30.09 in 10.0 mi North 15.0 mph 24.2 mph N/A   Clear
6:35 PM 23.0 °F 11.1 °F 17.6 °F 80% 30.11 in 10.0 mi North 12.7 mph - N/A   Clear
6:56 PM 23.0 °F 11.7 °F 15.8 °F 74% 30.13 in 10.0 mi North 11.5 mph - N/A   Clear
7:16 PM 21.2 °F 9.5 °F 14.0 °F 74% 30.14 in 10.0 mi North 11.5 mph - N/A   Clear
7:35 PM 21.2 °F 8.9 °F 10.4 °F 63% 30.15 in 10.0 mi North 12.7 mph 19.6 mph N/A   Clear
7:56 PM 19.4 °F 6.0 °F 6.8 °F 58% 30.16 in 10.0 mi North 13.8 mph 19.6 mph N/A   Clear
8:16 PM 17.6 °F 3.7 °F 5.0 °F 58% 30.17 in 10.0 mi North 13.8 mph 20.7 mph N/A   Clear
8:35 PM 17.6 °F 6.4 °F 1.4 °F 49% 30.20 in 10.0 mi NNW 9.2 mph 17.3 mph N/A   Clear
8:56 PM 17.6 °F 6.4 °F 1.4 °F 49% 30.21 in 10.0 mi North 9.2 mph - N/A   Clear
9:16 PM 15.8 °F 8.6 °F 1.4 °F 53% 30.22 in 10.0 mi North 4.6 mph - N/A   Clear
9:35 PM 15.8 °F 6.1 °F 1.4 °F 53% 30.22 in 10.0 mi North 6.9 mph - N/A   Clear
9:56 PM 14.0 °F 5.1 °F 1.4 °F 57% 30.22 in 10.0 mi North 5.8 mph - N/A   Clear
10:16 PM 14.0 °F 6.5 °F 1.4 °F 57% 30.23 in 10.0 mi North 4.6 mph - N/A   Clear
10:36 PM 14.0 °F 6.5 °F 3.2 °F 62% 30.24 in 10.0 mi North 4.6 mph - N/A   Clear
10:56 PM 14.0 °F 6.5 °F 1.4 °F 57% 30.23 in 10.0 mi North 4.6 mph - N/A   Clear
11:15 PM 14.0 °F 5.1 °F 3.2 °F 62% 30.24 in 10.0 mi North 5.8 mph - N/A   Clear
11:36 PM 12.2 °F 6.1 °F 5.0 °F 73% 30.25 in 10.0 mi North 3.5 mph - N/A   Clear
11:56 PM 12.2 °F - 5.0 °F 73% 30.25 in 10.0 mi Calm Calm - N/A   Clear